Погода в Герзель-Ауле

Россия / Чеченская Республика     43°14′50″N   46°23′59″E
темп.,
°C
ветер,
м/с
пор.,
м/с
влажн.,
%
обл.,
%
осадки,
мм/ч
давл.,
гПа
погр.,
м
29 мая, вс
вс2900:00+15зюз11831 0.0 101310
03:00+14юз00851 0.0 101410
06:00+16зсз11774 0.0 101494
09:00+22сз23615 0.0 1014538
12:00+26с21500 0.0 1013899
15:00+28св224681 0.0 10131274
18:00+23в356781 0.1 1013153
21:00+19ююз227724 0.3 101524
30 мая, пн
пн3000:00+19ююз338033 0.0 101532
03:00+18ююз22774 0.0 101517
06:00+21зюз12700 0.0 101570
09:00+25ссз22570 0.0 1016686
12:00+28св22470 0.0 10151317
15:00+30всв55420 0.0 10131554
18:00+24в355184 0.1 1014106
21:00+20юв2262100 0.1 101424
31 мая, вт
вт3100:00+19ю116993 0.0 101412
03:00+17зюз0171100 0.0 101411
06:00+20з11655 0.0 101467
09:00+25ссв21545 0.0 1013518
12:00+30всв334370 0.0 10121106
15:00+30всв773045 0.0 1011722
18:00+22ю2362100 0.4 101366
21:00+20ю226786 0.5 101314
1 июня, ср
ср100:00+19ююз226554 0.0 101212
03:00+18ю116391 0.0 101311
06:00+21юз11608 0.0 101351
09:00+26с114729 0.0 1013557
12:00+31св223681 0.0 10131258
15:00+31всв652651 0.0 10121036
18:00+24в3546100 0.0 1013140
21:00+21ююв225457 0.1 101420
2 июня, чт
чт200:00+20зюз227187 0.3 101418
03:00+19ю11755 0.6 101411
06:00+22юз116864 0.1 101454
09:00+26ссз225833 0.1 1015613
12:00+30ссв22445 0.0 10141254
15:00+31св22365 0.0 10131666
18:00+26в46413 0.0 1014163
21:00+21ююв22559 0.1 101519